Slayton, MN

7:50 AM CST on December 15, 2019 (GMT -0600)
Slayton

Weather History for KDVP - October, 2019

Change the Weather History Date:

Thursday, October 17, 2019

  Actual Average (WUND) Record (WUND)
Temperature  
Mean Temperature 46 °F -  
Max Temperature 63 °F - - (-1)
Min Temperature 30 °F - - (-1)
Degree Days  
Heating Degree Days 18    
Moisture  
Dew Point 36 °F    
Average Humidity 75    
Maximum Humidity 98    
Minimum Humidity 42    
Precipitation  
Precipitation 0.00 in - - ()
Sea Level Pressure  
Sea Level Pressure 29.88 in    
Wind  
Wind Speed 7 mph ()    
Max Wind Speed 14 mph    
Max Gust Speed 21 mph    
Visibility 9.3 miles    
Events      
Averages and records for this station are not official NWS values.
T = Trace of Precipitation, MM = Missing Value Source: Averaged Metar Reports

Daily Weather History Graph

Daily Weather History Graph

Search for Another Location

Airport or City:

Astronomy

Oct. 17, 2019 Rise Set
Actual Time 7:39 AM CDT 6:36 PM CDT
Civil Twilight 7:10 AM CDT 7:05 PM CDT
Nautical Twilight 6:37 AM CDT 7:38 PM CDT
Astronomical Twilight 6:03 AM CDT 8:12 PM CDT
Moon 9:02 PM CDT (10/17) 11:18 AM CDT (10/17)
Length of Visible Light 11h 54m
Length of Day
10h 56m
Waning Gibbous, 86% of the Moon is Illuminated
Oct 17
Waning Gibbous
Oct 21
Last Quarter
Oct 27
New
Nov 4
First Quarter
Nov 12
Full

Hourly Weather History & Observations

Time (CDT) Temp. Windchill Dew Point Humidity Pressure Visibility Wind Dir Wind Speed Gust Speed Precip Events Conditions
12:11 AM 31.8 °F 28.5 °F 30.9 °F 96% 30.01 in 10.0 mi SSE 3.5 mph - N/A   Clear
12:40 AM 31.3 °F 26.6 °F 30.6 °F 97% 30.01 in 10.0 mi SSE 4.6 mph - N/A   Clear
2:15 AM 31.1 °F 25.4 °F 30.2 °F 96% 30.00 in 10.0 mi ESE 5.8 mph - N/A   Clear
2:42 AM 31.8 °F 26.2 °F 30.9 °F 96% 29.99 in 10.0 mi SE 5.8 mph - N/A   Clear
2:54 AM 32.0 °F 27.5 °F 30.9 °F 96% 29.99 in 10.0 mi SE 4.6 mph - N/A   Clear
3:23 AM 31.6 °F 27.0 °F 30.7 °F 96% 29.98 in 7.0 mi SE 4.6 mph - N/A   Clear
3:45 AM 31.6 °F 27.0 °F 30.9 °F 97% 29.97 in 7.0 mi SE 4.6 mph - N/A   Clear
5:53 AM 31.1 °F 24.5 °F 30.2 °F 96% 29.94 in 7.0 mi SE 6.9 mph - N/A   Clear
6:20 AM 31.1 °F 25.4 °F 30.2 °F 96% 29.94 in 7.0 mi SE 5.8 mph - N/A   Clear
7:12 AM 30.6 °F 23.8 °F 29.8 °F 97% 29.94 in 7.0 mi SSE 6.9 mph - N/A   Clear
7:33 AM 31.3 °F 24.7 °F 30.7 °F 98% 29.94 in 7.0 mi SSE 6.9 mph - N/A   Clear
8:52 AM 33.3 °F 27.9 °F 32.0 °F 95% 29.94 in 7.0 mi SE 5.8 mph - N/A   Clear
9:52 AM 40.3 °F 34.9 °F 36.5 °F 86% 29.94 in 10.0 mi SE 8.1 mph - N/A   Clear
10:11 AM 43.0 °F 38.8 °F 37.6 °F 81% 29.94 in 10.0 mi SE 6.9 mph - N/A   Clear
10:51 AM 49.6 °F - 38.7 °F 66% 29.93 in 10.0 mi SSE 10.4 mph - N/A   Clear
11:12 AM 52.7 °F - 39.0 °F 60% 29.92 in 10.0 mi South 12.7 mph 16.1 mph N/A   Clear
11:44 AM 54.3 °F - 38.8 °F 56% 29.91 in 10.0 mi SSE 10.4 mph 18.4 mph N/A   Clear
4:12 PM 63.3 °F - 39.6 °F 42% 29.82 in 10.0 mi SSE 13.8 mph 20.7 mph N/A   Clear
4:35 PM 63.1 °F - 39.6 °F 42% 29.82 in 10.0 mi SE 12.7 mph 19.6 mph N/A   Clear
4:57 PM 61.3 °F - 39.2 °F 44% 29.81 in 10.0 mi SE 12.7 mph - N/A   Clear
5:17 PM 59.9 °F - 39.4 °F 47% 29.81 in 10.0 mi SE 10.4 mph - N/A   Clear
6:54 PM 53.6 °F - 39.6 °F 59% 29.79 in 10.0 mi SE 8.1 mph - N/A   Clear
7:18 PM 52.9 °F - 39.7 °F 61% 29.78 in 10.0 mi SE 9.2 mph - N/A   Clear
7:39 PM 52.7 °F - 39.4 °F 61% 29.78 in 10.0 mi SE 10.4 mph - N/A   Clear
7:52 PM 52.2 °F - 39.4 °F 62% 29.78 in 10.0 mi SE 10.4 mph - N/A   Clear
8:11 PM 51.8 °F - 39.4 °F 63% 29.78 in 10.0 mi SE 9.2 mph - N/A   Clear
8:35 PM 51.1 °F - 39.4 °F 64% 29.78 in 10.0 mi SE 10.4 mph - N/A   Clear
8:55 PM 50.2 °F - 39.6 °F 67% 29.78 in 10.0 mi SE 9.2 mph - N/A   Clear
9:28 PM 49.8 °F - 39.7 °F 68% 29.78 in 10.0 mi SE 9.2 mph - N/A   Clear
11:15 PM 49.6 °F - 40.6 °F 71% 29.77 in 10.0 mi SSE 13.8 mph - N/A   Clear
11:35 PM 49.6 °F - 40.8 °F 72% 29.76 in 10.0 mi SSE 13.8 mph - N/A   Clear